Flag for Spain Weather past 2 weeks in Las Palmas, Canary Islands, Spain

Now
68 °F

Passing clouds.


Feels Like: 68 °F
Forecast: 59 / 65 °F
Wind: 32 mph from North

Location: Las Palmas De Gran Canaria / Gando

Current Time: Feb 27, 2015 at 3:37:15 PM

Latest Report: Feb 27, 2015 at 3:00 PM


Visibility: N/A

Pressure: 30.30 "Hg

Humidity: 60%

Dew point: 54 °F

Location of Las PalmasLocation

Historic Weather in Las Palmas — Graph

°F

Las Palmas temperature yesterday

Maximum temperature yesterday: 68 °F (at 12:30 PM)
Minimum temperature yesterday: 59 °F (at 7:00 AM)
Average temperature yesterday: 63 °F

Past Weeks' High & Low Weather Summary

 TemperatureHumidityPressure
High70 °F (Feb 16, 11:00 AM)94% (Feb 22, 2:00 AM)30.39 "Hg (Feb 22, 2:00 AM)
Low55 °F (Feb 19, 8:30 PM)46% (Feb 18, 12:30 PM)30.09 "Hg (Feb 18, 2:30 PM)
Average63 °F68%30.24 "Hg
* Reported Feb 12 2:00 PM — Feb 27 2:30 PM, Las Palmas, Weather by CustomWeather, © 2015

Note: Actual official high and low records may vary slightly from our data, if they occured in-between our weather recording intervals... More about our weather records

Advertising

Las Palmas weather history for previous 24 hours

 ConditionsComfort  
Time TempWeatherWind HumidityBarometerVisibility
2:30 PM
Fri, Feb 27
68 °FPassing clouds.31 mph60%30.33 "HgN/A
2:00 PM68 °FScattered clouds.32 mph56%30.33 "HgN/A
1:30 PM68 °FScattered clouds.30 mph60%30.36 "HgN/A
1:00 PM68 °FScattered clouds.30 mph60%30.36 "HgN/A
12:30 PM68 °FScattered clouds.30 mph60%30.36 "HgN/A
12:00 PM66 °FScattered clouds.30 mph64%30.39 "HgN/A
11:30 AM66 °FScattered clouds.30 mph64%30.39 "HgN/A
11:00 AM64 °FScattered clouds.31 mph68%30.39 "HgN/A
10:30 AM63 °FScattered clouds.28 mph73%30.36 "HgN/A
10:00 AM63 °FPartly sunny.26 mph73%30.36 "HgN/A
9:30 AM63 °FPartly sunny.28 mph73%30.36 "HgN/A
9:00 AM63 °FPartly sunny.26 mph68%30.36 "HgN/A
8:30 AM63 °FPartly sunny.25 mph68%30.33 "HgN/A
8:00 AM61 °FPartly sunny.22 mph72%30.33 "HgN/A
7:30 AM63 °FPartly sunny.24 mph68%30.33 "HgN/A
7:00 AM61 °FPassing clouds.24 mph77%30.30 "HgN/A
6:30 AM61 °FPassing clouds.28 mph77%30.30 "HgN/A
6:00 AM61 °FPassing clouds.23 mph77%30.30 "HgN/A
5:30 AM61 °FPassing clouds.22 mph72%30.30 "HgN/A
5:00 AM61 °FPassing clouds.21 mph72%30.30 "HgN/A
4:30 AM61 °FPassing clouds.22 mph72%30.30 "HgN/A
3:30 AM63 °FPassing clouds.25 mph73%30.30 "HgN/A
3:00 AM63 °FPassing clouds.21 mph73%30.30 "HgN/A
2:30 AM63 °FPassing clouds.23 mph73%30.30 "HgN/A
2:00 AM63 °FPassing clouds.24 mph73%30.30 "HgN/A
1:30 AM63 °FPassing clouds.22 mph68%30.33 "HgN/A
1:00 AM63 °FPartly cloudy.25 mph68%30.33 "HgN/A
12:30 AM63 °FPassing clouds.23 mph68%30.33 "HgN/A
12:00 AM61 °FPassing clouds.23 mph72%30.33 "HgN/A
11:30 PM
Thu, Feb 26
61 °FPassing clouds.23 mph72%30.33 "HgN/A
11:00 PM61 °FPassing clouds.24 mph72%30.33 "HgN/A
10:30 PM63 °FPassing clouds.26 mph68%30.33 "HgN/A
10:00 PM63 °FPassing clouds.26 mph64%30.33 "HgN/A
9:30 PM63 °FPassing clouds.26 mph64%30.33 "HgN/A
9:00 PM63 °FPassing clouds.25 mph68%30.30 "HgN/A
8:30 PM63 °FPassing clouds.25 mph68%30.30 "HgN/A
8:00 PM63 °FPassing clouds.26 mph68%30.30 "HgN/A
7:30 PM63 °FPassing clouds.30 mph68%30.30 "HgN/A
7:00 PM63 °FPassing clouds.29 mph68%30.27 "HgN/A
6:30 PM63 °FPassing clouds.30 mph68%30.27 "HgN/A
6:00 PM64 °FPassing clouds.29 mph64%30.27 "HgN/A
5:30 PM64 °FPassing clouds.33 mph64%30.27 "HgN/A
5:00 PM66 °FPassing clouds.33 mph60%30.27 "HgN/A
4:30 PM66 °FPassing clouds.31 mph56%30.27 "HgN/A
4:00 PM66 °FPassing clouds.33 mph60%30.27 "HgN/A
3:30 PM68 °FPassing clouds.33 mph60%30.27 "HgN/A
3:00 PM68 °FPassing clouds.35 mph56%30.27 "HgN/A
Weather by CustomWeather, © 2015

See weather overviewHow to use our weather pages